Regional Weather Roundup
Issued by NWS

Home | Current Version | Previous Version | Text Only | Print | Product List | Glossary Off
Versions: 1 2 3 4 5 6 7 8 9 10 11 12 13 14 15 16 17 18 19 20 21 22 23 24 25 26 27 28 29 30 31 32 33 34 35 36 37 38 39 40 41 42 43 44 45 46 47 48 49 50

000
ASUS43 KBIS 010810
RWRND

NORTH DAKOTA REGIONAL WEATHER ROUNDUP
NATIONAL WEATHER SERVICE BISMARCK ND
300 AM CDT TUE SEP 01 2015

NOTE: "FAIR" INDICATES FEW OR NO CLOUDS BELOW 12,000 FEET WITH NO
SIGNIFICANT WEATHER AND/OR OBSTRUCTIONS TO VISIBILITY.


NDZ001>003-009>011-017-010900-
NORTHWEST NORTH DAKOTA

CITY           SKY/WX    TMP DP  RH WIND       PRES   REMARKS
WILLISTON      CLEAR     47  43  86 CALM      29.84F
MINOT          CLEAR     59  47  64 SW8       29.84F
MINOT AFB      PTCLDY    51  46  83 S5        29.83F
$$

NDZ018>021-031>035-040>046-010900-
SOUTHWEST NORTH DAKOTA

CITY           SKY/WX    TMP DP  RH WIND       PRES   REMARKS
BISMARCK       CLEAR     56  51  84 E5        29.88F
DICKINSON      CLEAR     55  46  71 S9        29.86F
GARRISON         N/A     57  47  69 CALM      29.86F
HETTINGER ARPT CLEAR     54  47  77 SE5       29.91F
$$

NDZ004>008-012>016-024-026-027-054-010900-
NORTHEAST NORTH DAKOTA

CITY           SKY/WX    TMP DP  RH WIND       PRES   REMARKS
GRAND FORKS    PTCLDY    56  53  90 SW5       29.85S
GRND FRKS AFB  PTCLDY    53  50  90 SW6       29.86S
DEVILS LAKE    CLEAR     63  48  59 S10       29.85S
$$

NDZ022-023-025-028>030-036>039-047>053-010900-
SOUTHEAST NORTH DAKOTA

CITY           SKY/WX    TMP DP  RH WIND       PRES   REMARKS
FARGO          MOCLDY    60  58  92 CALM      29.87F
JAMESTOWN      MOCLDY    56  53  90 CALM      29.88F
$$



USA.gov is the U.S. government's official web portal to all federal, state and local government web resources and services.